Year,Month,Day,Hour,Minute,Value (Times are PST for temperature in C)
2018,05,08,00,00,10.80
2018,05,08,00,01,10.80
2018,05,08,00,02,10.80
2018,05,08,00,03,10.80
2018,05,08,00,04,10.70
2018,05,08,00,05,10.70
2018,05,08,00,06,10.70
2018,05,08,00,07,10.70
2018,05,08,00,08,10.70
2018,05,08,00,09,10.60
2018,05,08,00,10,10.60
2018,05,08,00,11,10.60
2018,05,08,00,12,10.60
2018,05,08,00,13,10.60
2018,05,08,00,14,10.50
2018,05,08,00,15,10.50
2018,05,08,00,16,10.50
2018,05,08,00,17,10.40
2018,05,08,00,18,10.40
2018,05,08,00,19,10.40
2018,05,08,00,20,10.40
2018,05,08,00,21,10.40
2018,05,08,00,22,10.40
2018,05,08,00,23,10.30
2018,05,08,00,24,10.30
2018,05,08,00,25,10.30
2018,05,08,00,26,10.30
2018,05,08,00,27,10.30
2018,05,08,00,28,10.30
2018,05,08,00,29,10.30
2018,05,08,00,30,10.30
2018,05,08,00,31,10.20
2018,05,08,00,32,10.20
2018,05,08,00,33,10.20
2018,05,08,00,34,10.20
2018,05,08,00,35,10.20
2018,05,08,00,36,10.20
2018,05,08,00,37,10.20
2018,05,08,00,38,10.10
2018,05,08,00,39,10.10
2018,05,08,00,40,10.10
2018,05,08,00,41,10.10
2018,05,08,00,42,10.10
2018,05,08,00,43,10.10
2018,05,08,00,44,10.10
2018,05,08,00,45,10.00
2018,05,08,00,46,10.00
2018,05,08,00,47,10.00
2018,05,08,00,48,10.00
2018,05,08,00,49,10.00
2018,05,08,00,50,9.90
2018,05,08,00,51,9.90
2018,05,08,00,52,9.90
2018,05,08,00,53,9.90
2018,05,08,00,54,9.90
2018,05,08,00,55,9.90
2018,05,08,00,56,9.90
2018,05,08,00,57,9.80
2018,05,08,00,58,9.80
2018,05,08,00,59,9.80
2018,05,08,01,00,9.80
2018,05,08,01,01,9.80
2018,05,08,01,02,9.80
2018,05,08,01,03,9.80
2018,05,08,01,04,9.80
2018,05,08,01,05,9.70
2018,05,08,01,06,9.70
2018,05,08,01,07,9.70
2018,05,08,01,08,9.70
2018,05,08,01,09,9.70
2018,05,08,01,10,9.70
2018,05,08,01,11,9.70
2018,05,08,01,12,9.70
2018,05,08,01,13,9.70
2018,05,08,01,14,9.70
2018,05,08,01,15,9.70
2018,05,08,01,16,9.70
2018,05,08,01,17,9.60
2018,05,08,01,18,9.60
2018,05,08,01,19,9.60
2018,05,08,01,20,9.60
2018,05,08,01,21,9.60
2018,05,08,01,22,9.60
2018,05,08,01,23,9.60
2018,05,08,01,24,9.60
2018,05,08,01,25,9.60
2018,05,08,01,26,9.60
2018,05,08,01,27,9.60
2018,05,08,01,28,9.60
2018,05,08,01,29,9.60
2018,05,08,01,30,9.60
2018,05,08,01,31,9.60
2018,05,08,01,32,9.50
2018,05,08,01,33,9.50
2018,05,08,01,34,9.50
2018,05,08,01,35,9.50
2018,05,08,01,36,9.50
2018,05,08,01,37,9.50
2018,05,08,01,38,9.40
2018,05,08,01,39,9.40
2018,05,08,01,40,9.40
2018,05,08,01,41,9.40
2018,05,08,01,42,9.40
2018,05,08,01,43,9.40
2018,05,08,01,44,9.40
2018,05,08,01,45,9.40
2018,05,08,01,46,9.30
2018,05,08,01,47,9.30
2018,05,08,01,48,9.30
2018,05,08,01,49,9.30
2018,05,08,01,50,9.30
2018,05,08,01,51,9.30
2018,05,08,01,52,9.30
2018,05,08,01,53,9.30
2018,05,08,01,54,9.30
2018,05,08,01,55,9.30
2018,05,08,01,56,9.20
2018,05,08,01,57,9.20
2018,05,08,01,58,9.20
2018,05,08,01,59,9.20
2018,05,08,02,00,9.20
2018,05,08,02,01,9.20
2018,05,08,02,02,9.20
2018,05,08,02,03,9.20
2018,05,08,02,04,9.20
2018,05,08,02,05,9.20
2018,05,08,02,06,9.20
2018,05,08,02,07,9.20
2018,05,08,02,08,9.20
2018,05,08,02,09,9.20
2018,05,08,02,10,9.20
2018,05,08,02,11,9.20
2018,05,08,02,12,9.20
2018,05,08,02,13,9.10
2018,05,08,02,14,9.10
2018,05,08,02,15,9.10
2018,05,08,02,16,9.10
2018,05,08,02,17,9.00
2018,05,08,02,18,9.00
2018,05,08,02,19,9.00
2018,05,08,02,20,9.00
2018,05,08,02,21,9.00
2018,05,08,02,22,9.00
2018,05,08,02,23,9.00
2018,05,08,02,24,8.90
2018,05,08,02,25,8.90
2018,05,08,02,26,8.90
2018,05,08,02,27,8.90
2018,05,08,02,28,8.90
2018,05,08,02,29,8.90
2018,05,08,02,30,8.90
2018,05,08,02,31,8.90
2018,05,08,02,32,8.90
2018,05,08,02,33,8.90
2018,05,08,02,34,8.90
2018,05,08,02,35,8.90
2018,05,08,02,36,8.90
2018,05,08,02,37,8.90
2018,05,08,02,38,8.90
2018,05,08,02,39,8.90
2018,05,08,02,40,8.90
2018,05,08,02,41,8.90
2018,05,08,02,42,8.80
2018,05,08,02,43,8.80
2018,05,08,02,44,8.80
2018,05,08,02,45,8.80
2018,05,08,02,46,8.80
2018,05,08,02,47,8.80
2018,05,08,02,48,8.80
2018,05,08,02,49,8.80
2018,05,08,02,50,8.80
2018,05,08,02,51,8.80
2018,05,08,02,52,8.80
2018,05,08,02,53,8.80
2018,05,08,02,54,8.80
2018,05,08,02,55,8.80
2018,05,08,02,56,8.70
2018,05,08,02,57,8.70
2018,05,08,02,58,8.70
2018,05,08,02,59,8.70
2018,05,08,03,00,8.70
2018,05,08,03,01,8.70
2018,05,08,03,02,8.70
2018,05,08,03,03,8.70
2018,05,08,03,04,8.70
2018,05,08,03,05,8.70
2018,05,08,03,06,8.60
2018,05,08,03,07,8.60
2018,05,08,03,08,8.60
2018,05,08,03,09,8.60
2018,05,08,03,10,8.60
2018,05,08,03,11,8.60
2018,05,08,03,12,8.60
2018,05,08,03,13,8.60
2018,05,08,03,14,8.60
2018,05,08,03,15,8.60
2018,05,08,03,16,8.60
2018,05,08,03,17,8.60
2018,05,08,03,18,8.60
2018,05,08,03,19,8.60
2018,05,08,03,20,8.60
2018,05,08,03,21,8.60
2018,05,08,03,22,8.60
2018,05,08,03,23,8.60
2018,05,08,03,24,8.50
2018,05,08,03,25,8.50
2018,05,08,03,26,8.50
2018,05,08,03,27,8.50
2018,05,08,03,28,8.50
2018,05,08,03,29,8.40
2018,05,08,03,30,8.40
2018,05,08,03,31,8.40
2018,05,08,03,32,8.40
2018,05,08,03,33,8.40
2018,05,08,03,34,8.40
2018,05,08,03,35,8.40
2018,05,08,03,36,8.40
2018,05,08,03,37,8.40
2018,05,08,03,38,8.40
2018,05,08,03,39,8.30
2018,05,08,03,40,8.30
2018,05,08,03,41,8.30
2018,05,08,03,42,8.30
2018,05,08,03,43,8.30
2018,05,08,03,44,8.30
2018,05,08,03,45,8.30
2018,05,08,03,46,8.30
2018,05,08,03,47,8.30
2018,05,08,03,48,8.30
2018,05,08,03,49,8.30
2018,05,08,03,50,8.30
2018,05,08,03,51,8.30
2018,05,08,03,52,8.30
2018,05,08,03,53,8.30
2018,05,08,03,54,8.30
2018,05,08,03,55,8.30
2018,05,08,03,56,8.30
2018,05,08,03,57,8.30
2018,05,08,03,58,8.30
2018,05,08,03,59,8.30
2018,05,08,04,00,8.30
2018,05,08,04,01,8.20
2018,05,08,04,02,8.20
2018,05,08,04,03,8.20
2018,05,08,04,04,8.20
2018,05,08,04,05,8.20
2018,05,08,04,06,8.20
2018,05,08,04,07,8.20
2018,05,08,04,08,8.20
2018,05,08,04,09,8.20
2018,05,08,04,10,8.10
2018,05,08,04,11,8.10
2018,05,08,04,12,8.10
2018,05,08,04,13,8.10
2018,05,08,04,14,8.10
2018,05,08,04,15,8.00
2018,05,08,04,16,8.00
2018,05,08,04,17,8.00
2018,05,08,04,18,8.00
2018,05,08,04,19,8.00
2018,05,08,04,20,8.00
2018,05,08,04,21,8.00
2018,05,08,04,22,8.00
2018,05,08,04,23,7.90
2018,05,08,04,24,7.90
2018,05,08,04,25,7.90
2018,05,08,04,26,7.90
2018,05,08,04,27,7.90
2018,05,08,04,28,7.90
2018,05,08,04,29,7.90
2018,05,08,04,30,7.90
2018,05,08,04,31,7.90
2018,05,08,04,32,7.80
2018,05,08,04,33,7.80
2018,05,08,04,34,7.80
2018,05,08,04,35,7.80
2018,05,08,04,36,7.80
2018,05,08,04,37,7.80
2018,05,08,04,38,7.80
2018,05,08,04,39,7.80
2018,05,08,04,40,7.80
2018,05,08,04,41,7.80
2018,05,08,04,42,7.80
2018,05,08,04,43,7.80
2018,05,08,04,44,7.80
2018,05,08,04,45,7.80
2018,05,08,04,46,7.80
2018,05,08,04,47,7.80
2018,05,08,04,48,7.80
2018,05,08,04,49,7.80
2018,05,08,04,50,7.80
2018,05,08,04,51,7.70
2018,05,08,04,52,7.70
2018,05,08,04,53,7.70
2018,05,08,04,54,7.70
2018,05,08,04,55,7.60
2018,05,08,04,56,7.60
2018,05,08,04,57,7.60
2018,05,08,04,58,7.60
2018,05,08,04,59,7.60
2018,05,08,05,00,7.60
2018,05,08,05,01,7.60
2018,05,08,05,02,7.60
2018,05,08,05,03,7.60
2018,05,08,05,04,7.60
2018,05,08,05,05,7.60
2018,05,08,05,06,7.60
2018,05,08,05,07,7.60
2018,05,08,05,08,7.60
2018,05,08,05,09,7.60
2018,05,08,05,10,7.60
2018,05,08,05,11,7.60
2018,05,08,05,12,7.60
2018,05,08,05,13,7.60
2018,05,08,05,14,7.60
2018,05,08,05,15,7.60
2018,05,08,05,16,7.60
2018,05,08,05,17,7.60
2018,05,08,05,18,7.60
2018,05,08,05,19,7.60
2018,05,08,05,20,7.60
2018,05,08,05,21,7.60
2018,05,08,05,22,7.60
2018,05,08,05,23,7.60
2018,05,08,05,24,7.60
2018,05,08,05,25,7.60
2018,05,08,05,26,7.50
2018,05,08,05,27,7.50
2018,05,08,05,28,7.50
2018,05,08,05,29,7.50
2018,05,08,05,30,7.40
2018,05,08,05,31,7.40
2018,05,08,05,32,7.40
2018,05,08,05,33,7.40
2018,05,08,05,34,7.40
2018,05,08,05,35,7.40
2018,05,08,05,36,7.40
2018,05,08,05,37,7.40
2018,05,08,05,38,7.40
2018,05,08,05,39,7.30
2018,05,08,05,40,7.30
2018,05,08,05,41,7.30
2018,05,08,05,42,7.30
2018,05,08,05,43,7.30
2018,05,08,05,44,7.30
2018,05,08,05,45,7.30
2018,05,08,05,46,7.30
2018,05,08,05,47,7.30
2018,05,08,05,48,7.30
2018,05,08,05,49,7.30
2018,05,08,05,50,7.30
2018,05,08,05,51,7.30
2018,05,08,05,52,7.30
2018,05,08,05,53,7.30
2018,05,08,05,54,7.30
2018,05,08,05,55,7.30
2018,05,08,05,56,7.30
2018,05,08,05,57,7.30
2018,05,08,05,58,7.30
2018,05,08,05,59,7.30
2018,05,08,06,00,7.30
2018,05,08,06,01,7.30
2018,05,08,06,02,7.30
2018,05,08,06,03,7.30
2018,05,08,06,04,7.30
2018,05,08,06,05,7.30
2018,05,08,06,06,7.30
2018,05,08,06,07,7.30
2018,05,08,06,08,7.20
2018,05,08,06,09,7.20
2018,05,08,06,10,7.20
2018,05,08,06,11,7.20
2018,05,08,06,12,7.20
2018,05,08,06,13,7.20
2018,05,08,06,14,7.20
2018,05,08,06,15,7.20
2018,05,08,06,16,7.20
2018,05,08,06,17,7.20
2018,05,08,06,18,7.10
2018,05,08,06,19,7.10
2018,05,08,06,20,7.10
2018,05,08,06,21,7.10
2018,05,08,06,22,7.10
2018,05,08,06,23,7.10
2018,05,08,06,24,7.10
2018,05,08,06,25,7.10
2018,05,08,06,26,7.10
2018,05,08,06,27,7.10
2018,05,08,06,28,7.10
2018,05,08,06,29,7.10
2018,05,08,06,30,7.20
2018,05,08,06,31,7.20
2018,05,08,06,32,7.20
2018,05,08,06,33,7.20
2018,05,08,06,34,7.20
2018,05,08,06,35,7.20
2018,05,08,06,36,7.20
2018,05,08,06,37,7.20
2018,05,08,06,38,7.20
2018,05,08,06,39,7.20
2018,05,08,06,40,7.20
2018,05,08,06,41,7.20
2018,05,08,06,42,7.20
2018,05,08,06,43,7.20
2018,05,08,06,44,7.20
2018,05,08,06,45,7.20
2018,05,08,06,46,7.20
2018,05,08,06,47,7.20
2018,05,08,06,48,7.20
2018,05,08,06,49,7.20
2018,05,08,06,50,7.20
2018,05,08,06,51,7.20
2018,05,08,06,52,7.20
2018,05,08,06,53,7.20
2018,05,08,06,54,7.20
2018,05,08,06,55,7.20
2018,05,08,06,56,7.20
2018,05,08,06,57,7.20
2018,05,08,06,58,7.20
2018,05,08,06,59,7.20
2018,05,08,07,00,7.20
2018,05,08,07,01,7.20
2018,05,08,07,02,7.20
2018,05,08,07,03,7.20
2018,05,08,07,04,7.20
2018,05,08,07,05,7.20
2018,05,08,07,06,7.20
2018,05,08,07,07,7.30
2018,05,08,07,08,7.30
2018,05,08,07,09,7.30
2018,05,08,07,10,7.30
2018,05,08,07,11,7.40
2018,05,08,07,12,7.40
2018,05,08,07,13,7.50
2018,05,08,07,14,7.60
2018,05,08,07,15,7.60
2018,05,08,07,16,7.70
2018,05,08,07,17,7.80
2018,05,08,07,18,7.80
2018,05,08,07,19,7.90
2018,05,08,07,20,7.90
2018,05,08,07,21,7.90
2018,05,08,07,22,8.00
2018,05,08,07,23,8.00
2018,05,08,07,24,8.10
2018,05,08,07,25,8.10
2018,05,08,07,26,8.20
2018,05,08,07,27,8.20
2018,05,08,07,28,8.30
2018,05,08,07,29,8.40
2018,05,08,07,30,8.40
2018,05,08,07,31,8.50
2018,05,08,07,32,8.50
2018,05,08,07,33,8.50
2018,05,08,07,34,8.60
2018,05,08,07,35,8.60
2018,05,08,07,36,8.60
2018,05,08,07,37,8.60
2018,05,08,07,38,8.70
2018,05,08,07,39,8.70
2018,05,08,07,40,8.80
2018,05,08,07,41,8.80
2018,05,08,07,42,8.90
2018,05,08,07,43,9.00
2018,05,08,07,44,9.10
2018,05,08,07,45,9.20
2018,05,08,07,46,9.30
2018,05,08,07,47,9.40
2018,05,08,07,48,9.60
2018,05,08,07,49,9.70
2018,05,08,07,50,9.80
2018,05,08,07,51,9.90
2018,05,08,07,52,10.00
2018,05,08,07,53,10.10
2018,05,08,07,54,10.20
2018,05,08,07,55,10.20
2018,05,08,07,56,10.30
2018,05,08,07,57,10.30
2018,05,08,07,58,10.40
2018,05,08,07,59,10.40
2018,05,08,08,00,10.50
2018,05,08,08,01,10.60
2018,05,08,08,02,10.70
2018,05,08,08,03,10.70
2018,05,08,08,04,10.80
2018,05,08,08,05,10.90
2018,05,08,08,06,10.90
2018,05,08,08,07,11.00
2018,05,08,08,08,11.00
2018,05,08,08,09,11.10
2018,05,08,08,10,11.20
2018,05,08,08,11,11.30
2018,05,08,08,12,11.40
2018,05,08,08,13,11.40
2018,05,08,08,14,11.40
2018,05,08,08,15,11.40
2018,05,08,08,16,11.40
2018,05,08,08,17,11.40
2018,05,08,08,18,11.40
2018,05,08,08,19,11.40
2018,05,08,08,20,11.40
2018,05,08,08,21,11.40
2018,05,08,08,22,11.40
2018,05,08,08,23,11.50
2018,05,08,08,24,11.60
2018,05,08,08,25,11.80
2018,05,08,08,26,11.80
2018,05,08,08,27,12.00
2018,05,08,08,28,12.10
2018,05,08,08,29,12.20
2018,05,08,08,30,12.30
2018,05,08,08,31,12.40
2018,05,08,08,32,12.50
2018,05,08,08,33,12.60
2018,05,08,08,34,12.70
2018,05,08,08,35,12.70
2018,05,08,08,36,12.70
2018,05,08,08,37,12.70
2018,05,08,08,38,12.70
2018,05,08,08,39,12.70
2018,05,08,08,40,12.70
2018,05,08,08,41,12.70
2018,05,08,08,42,12.70
2018,05,08,08,43,12.70
2018,05,08,08,44,12.70
2018,05,08,08,45,12.70
2018,05,08,08,46,12.70
2018,05,08,08,47,12.80
2018,05,08,08,48,12.90
2018,05,08,08,49,12.90
2018,05,08,08,50,13.00
2018,05,08,08,51,13.10
2018,05,08,08,52,13.10
2018,05,08,08,53,13.10
2018,05,08,08,54,13.10
2018,05,08,08,55,13.20
2018,05,08,08,56,13.20
2018,05,08,08,57,13.30
2018,05,08,08,58,13.30
2018,05,08,08,59,13.30
2018,05,08,09,00,13.40
2018,05,08,09,01,13.40
2018,05,08,09,02,13.50
2018,05,08,09,03,13.60
2018,05,08,09,04,13.60
2018,05,08,09,05,13.60
2018,05,08,09,06,13.60
2018,05,08,09,07,13.70
2018,05,08,09,08,13.70
2018,05,08,09,09,13.80
2018,05,08,09,10,13.80
2018,05,08,09,11,13.80
2018,05,08,09,12,13.90
2018,05,08,09,13,13.90
2018,05,08,09,14,13.90
2018,05,08,09,15,13.90
2018,05,08,09,16,13.90
2018,05,08,09,17,13.90
2018,05,08,09,18,13.90
2018,05,08,09,19,14.00
2018,05,08,09,20,14.00
2018,05,08,09,21,14.00
2018,05,08,09,22,14.10
2018,05,08,09,23,14.10
2018,05,08,09,24,14.20
2018,05,08,09,25,14.20
2018,05,08,09,26,14.20
2018,05,08,09,27,14.20
2018,05,08,09,28,14.20
2018,05,08,09,29,14.30
2018,05,08,09,30,14.30
2018,05,08,09,31,14.40
2018,05,08,09,32,14.40
2018,05,08,09,33,14.50
2018,05,08,09,34,14.50
2018,05,08,09,35,14.60
2018,05,08,09,36,14.70
2018,05,08,09,37,14.70
2018,05,08,09,38,14.80
2018,05,08,09,39,14.90
2018,05,08,09,40,15.00
2018,05,08,09,41,15.00
2018,05,08,09,42,15.10
2018,05,08,09,43,15.10
2018,05,08,09,44,15.20
2018,05,08,09,45,15.20
2018,05,08,09,46,15.30
2018,05,08,09,47,15.30
2018,05,08,09,48,15.40
2018,05,08,09,49,15.50
2018,05,08,09,50,15.60
2018,05,08,09,51,15.60
2018,05,08,09,52,15.70
2018,05,08,09,53,15.80
2018,05,08,09,54,15.80
2018,05,08,09,55,16.00
2018,05,08,09,56,16.00
2018,05,08,09,57,16.10
2018,05,08,09,58,16.20
2018,05,08,09,59,16.30
2018,05,08,10,00,16.30
2018,05,08,10,01,16.40
2018,05,08,10,02,16.40
2018,05,08,10,03,16.40
2018,05,08,10,04,16.40
2018,05,08,10,05,16.50
2018,05,08,10,06,16.40
2018,05,08,10,07,16.40
2018,05,08,10,08,16.40
2018,05,08,10,09,16.40
2018,05,08,10,10,16.40
2018,05,08,10,11,16.30
2018,05,08,10,12,16.30
2018,05,08,10,13,16.40
2018,05,08,10,14,16.40
2018,05,08,10,15,16.40
2018,05,08,10,16,16.40
2018,05,08,10,17,16.50
2018,05,08,10,18,16.50
2018,05,08,10,19,16.60
2018,05,08,10,20,16.60
2018,05,08,10,21,16.70
2018,05,08,10,22,16.70
2018,05,08,10,23,16.80
2018,05,08,10,24,16.80
2018,05,08,10,25,16.90
2018,05,08,10,26,17.00
2018,05,08,10,27,17.10
2018,05,08,10,28,17.10
2018,05,08,10,29,17.20
2018,05,08,10,30,17.20
2018,05,08,10,31,17.30
2018,05,08,10,32,17.30
2018,05,08,10,33,17.30
2018,05,08,10,34,17.30
2018,05,08,10,35,17.40
2018,05,08,10,36,17.40
2018,05,08,10,37,17.50
2018,05,08,10,38,17.70
2018,05,08,10,39,17.80
2018,05,08,10,40,18.00
2018,05,08,10,41,18.10
2018,05,08,10,42,18.20
2018,05,08,10,43,18.20
2018,05,08,10,44,18.30
2018,05,08,10,45,18.30
2018,05,08,10,46,18.30
2018,05,08,10,47,18.40
2018,05,08,10,48,18.50
2018,05,08,10,49,18.60
2018,05,08,10,50,18.70
2018,05,08,10,51,18.80
2018,05,08,10,52,18.90
2018,05,08,10,53,18.90
2018,05,08,10,54,19.00
2018,05,08,10,55,19.00
2018,05,08,10,56,19.10
2018,05,08,10,57,19.20
2018,05,08,10,58,19.30
2018,05,08,10,59,19.40
2018,05,08,11,00,19.50
2018,05,08,11,01,19.60
2018,05,08,11,02,19.70
2018,05,08,11,03,19.70
2018,05,08,11,04,19.80
2018,05,08,11,05,19.80
2018,05,08,11,06,19.80
2018,05,08,11,07,19.80
2018,05,08,11,08,19.90
2018,05,08,11,09,19.90
2018,05,08,11,10,19.90
2018,05,08,11,11,20.00
2018,05,08,11,12,20.00
2018,05,08,11,13,20.00
2018,05,08,11,14,20.10
2018,05,08,11,15,20.10
2018,05,08,11,16,20.20
2018,05,08,11,17,20.30
2018,05,08,11,18,20.40
2018,05,08,11,19,20.50
2018,05,08,11,20,20.60
2018,05,08,11,21,20.70
2018,05,08,11,22,20.80
2018,05,08,11,23,20.80
2018,05,08,11,24,20.80
2018,05,08,11,25,20.70
2018,05,08,11,26,20.70
2018,05,08,11,27,20.60
2018,05,08,11,28,20.60
2018,05,08,11,29,20.60
2018,05,08,11,30,20.60
2018,05,08,11,31,20.60
2018,05,08,11,32,20.60
2018,05,08,11,33,20.60
2018,05,08,11,34,20.60
2018,05,08,11,35,20.60
2018,05,08,11,36,20.70
2018,05,08,11,37,20.70
2018,05,08,11,38,20.70
2018,05,08,11,39,20.80
2018,05,08,11,40,20.80
2018,05,08,11,41,20.80
2018,05,08,11,42,20.80
2018,05,08,11,43,20.80
2018,05,08,11,44,20.70
2018,05,08,11,45,20.70
2018,05,08,11,46,20.70
2018,05,08,11,47,20.70
2018,05,08,11,48,20.60
2018,05,08,11,49,20.70
2018,05,08,11,50,20.70
2018,05,08,11,51,20.70
2018,05,08,11,52,20.70
2018,05,08,11,53,20.70
2018,05,08,11,54,20.70
2018,05,08,11,55,20.70
2018,05,08,11,56,20.80
2018,05,08,11,57,20.80
2018,05,08,11,58,20.90
2018,05,08,11,59,20.90
2018,05,08,12,00,21.00
2018,05,08,12,01,21.00
2018,05,08,12,02,21.00
2018,05,08,12,03,21.00
2018,05,08,12,04,21.00
2018,05,08,12,05,21.00
2018,05,08,12,06,21.00
2018,05,08,12,07,20.90
2018,05,08,12,08,20.90
2018,05,08,12,09,20.90
2018,05,08,12,10,20.90
2018,05,08,12,11,20.90
2018,05,08,12,12,20.90
2018,05,08,12,13,21.00
2018,05,08,12,14,21.00
2018,05,08,12,15,21.10
2018,05,08,12,16,21.00
2018,05,08,12,17,21.00
2018,05,08,12,18,21.00
2018,05,08,12,19,21.00
2018,05,08,12,20,21.00
2018,05,08,12,21,21.00
2018,05,08,12,22,21.00
2018,05,08,12,23,21.10
2018,05,08,12,24,21.10
2018,05,08,12,25,21.10
2018,05,08,12,26,21.10
2018,05,08,12,27,21.10
2018,05,08,12,28,21.20
2018,05,08,12,29,21.20
2018,05,08,12,30,21.20
2018,05,08,12,31,21.30
2018,05,08,12,32,21.30
2018,05,08,12,33,21.40
2018,05,08,12,34,21.40
2018,05,08,12,35,21.40
2018,05,08,12,36,21.40
2018,05,08,12,37,21.40
2018,05,08,12,38,21.40
2018,05,08,12,39,21.40
2018,05,08,12,40,21.40
2018,05,08,12,41,21.50
2018,05,08,12,42,21.50
2018,05,08,12,43,21.60
2018,05,08,12,44,21.60
2018,05,08,12,45,21.60
2018,05,08,12,46,21.60
2018,05,08,12,47,21.70
2018,05,08,12,48,21.60
2018,05,08,12,49,21.60
2018,05,08,12,50,21.60
2018,05,08,12,51,21.70
2018,05,08,12,52,21.70
2018,05,08,12,53,21.80
2018,05,08,12,54,21.90
2018,05,08,12,55,22.00
2018,05,08,12,56,22.00
2018,05,08,12,57,22.10
2018,05,08,12,58,22.10
2018,05,08,12,59,22.10
2018,05,08,13,00,22.20
2018,05,08,13,01,22.20
2018,05,08,13,02,22.20
2018,05,08,13,03,22.30
2018,05,08,13,04,22.30
2018,05,08,13,05,22.30
2018,05,08,13,06,22.40
2018,05,08,13,07,22.50
2018,05,08,13,08,22.60
2018,05,08,13,09,22.70
2018,05,08,13,10,22.70
2018,05,08,13,11,22.70
2018,05,08,13,12,22.70
2018,05,08,13,13,22.80
2018,05,08,13,14,22.90
2018,05,08,13,15,23.00
2018,05,08,13,16,23.10
2018,05,08,13,17,23.10
2018,05,08,13,18,23.20
2018,05,08,13,19,23.10
2018,05,08,13,20,23.00
2018,05,08,13,21,23.00
2018,05,08,13,22,23.00
2018,05,08,13,23,23.10
2018,05,08,13,24,23.20
2018,05,08,13,25,23.30
2018,05,08,13,26,23.40
2018,05,08,13,27,23.30
2018,05,08,13,28,23.40
2018,05,08,13,29,23.40
2018,05,08,13,30,23.40
2018,05,08,13,31,23.50
2018,05,08,13,32,23.60
2018,05,08,13,33,23.70
2018,05,08,13,34,23.70
2018,05,08,13,35,23.70
2018,05,08,13,36,23.70
2018,05,08,13,37,23.70
2018,05,08,13,38,23.90
2018,05,08,13,39,24.00
2018,05,08,13,40,24.20
2018,05,08,13,41,24.30
2018,05,08,13,42,24.30
2018,05,08,13,43,24.30
2018,05,08,13,44,24.30
2018,05,08,13,45,24.30
2018,05,08,13,46,24.20
2018,05,08,13,47,24.10
2018,05,08,13,48,24.00
2018,05,08,13,49,23.90
2018,05,08,13,50,23.80
2018,05,08,13,51,23.80
2018,05,08,13,52,23.80
2018,05,08,13,53,23.90
2018,05,08,13,54,23.90
2018,05,08,13,55,24.00
2018,05,08,13,56,24.00
2018,05,08,13,57,24.10
2018,05,08,13,58,24.10
2018,05,08,13,59,24.10
2018,05,08,14,00,24.00
2018,05,08,14,01,23.90
2018,05,08,14,02,23.80
2018,05,08,14,03,23.60
2018,05,08,14,04,23.40
2018,05,08,14,05,23.20
2018,05,08,14,06,23.00
2018,05,08,14,07,22.70
2018,05,08,14,08,22.50
2018,05,08,14,09,22.30
2018,05,08,14,10,22.20
2018,05,08,14,11,22.10
2018,05,08,14,12,22.00
2018,05,08,14,13,22.00
2018,05,08,14,14,21.90
2018,05,08,14,15,21.80
2018,05,08,14,16,21.70
2018,05,08,14,17,21.60
2018,05,08,14,18,21.50
2018,05,08,14,19,21.40
2018,05,08,14,20,21.30
2018,05,08,14,21,21.20
2018,05,08,14,22,21.20
2018,05,08,14,23,21.20
2018,05,08,14,24,21.10
2018,05,08,14,25,21.00
2018,05,08,14,26,21.00
2018,05,08,14,27,20.90
2018,05,08,14,28,20.80
2018,05,08,14,29,20.70
2018,05,08,14,30,20.60
2018,05,08,14,31,20.50
2018,05,08,14,32,20.40
2018,05,08,14,33,20.30
2018,05,08,14,34,20.30
2018,05,08,14,35,20.20
2018,05,08,14,36,20.20
2018,05,08,14,37,20.20
2018,05,08,14,38,20.10
2018,05,08,14,39,20.10
2018,05,08,14,40,20.00
2018,05,08,14,41,20.00
2018,05,08,14,42,20.00
2018,05,08,14,43,19.90
2018,05,08,14,44,19.90
2018,05,08,14,45,19.90
2018,05,08,14,46,19.80
2018,05,08,14,47,19.80
2018,05,08,14,48,19.70
2018,05,08,14,49,19.70
2018,05,08,14,50,19.60
2018,05,08,14,51,19.60
2018,05,08,14,52,19.60
2018,05,08,14,53,19.50
2018,05,08,14,54,19.50
2018,05,08,14,55,19.40
2018,05,08,14,56,19.40
2018,05,08,14,57,19.30
2018,05,08,14,58,19.30
2018,05,08,14,59,19.30
2018,05,08,15,00,19.30
2018,05,08,15,01,19.30
2018,05,08,15,02,19.30
2018,05,08,15,03,19.20
2018,05,08,15,04,19.20
2018,05,08,15,05,19.20
2018,05,08,15,06,19.10
2018,05,08,15,07,19.10
2018,05,08,15,08,19.10
2018,05,08,15,09,19.10
2018,05,08,15,10,19.10
2018,05,08,15,11,19.10
2018,05,08,15,12,19.10
2018,05,08,15,13,19.00
2018,05,08,15,14,19.00
2018,05,08,15,15,19.00
2018,05,08,15,16,19.00
2018,05,08,15,17,19.00
2018,05,08,15,18,19.00
2018,05,08,15,19,19.10
2018,05,08,15,20,19.10
2018,05,08,15,21,19.00
2018,05,08,15,22,19.00
2018,05,08,15,23,19.00
2018,05,08,15,24,19.00
2018,05,08,15,25,19.00
2018,05,08,15,26,18.90
2018,05,08,15,27,18.90
2018,05,08,15,28,18.90
2018,05,08,15,29,18.90
2018,05,08,15,30,18.90
2018,05,08,15,31,18.90
2018,05,08,15,32,18.90
2018,05,08,15,33,18.90
2018,05,08,15,34,18.80
2018,05,08,15,35,18.80
2018,05,08,15,36,18.80
2018,05,08,15,37,18.80
2018,05,08,15,38,18.80
2018,05,08,15,39,18.80
2018,05,08,15,40,18.70
2018,05,08,15,41,18.70
2018,05,08,15,42,18.60
2018,05,08,15,43,18.60
2018,05,08,15,44,18.60
2018,05,08,15,45,18.50
2018,05,08,15,46,18.50
2018,05,08,15,47,18.50
2018,05,08,15,48,18.40
2018,05,08,15,49,18.40
2018,05,08,15,50,18.40
2018,05,08,15,51,18.40
2018,05,08,15,52,18.40
2018,05,08,15,53,18.40
2018,05,08,15,54,18.40
2018,05,08,15,55,18.40
2018,05,08,15,56,18.40
2018,05,08,15,57,18.40
2018,05,08,15,58,18.30
2018,05,08,15,59,18.30
2018,05,08,16,00,18.30
2018,05,08,16,01,18.30
2018,05,08,16,02,18.30
2018,05,08,16,03,18.30
2018,05,08,16,04,18.30
2018,05,08,16,05,18.30
2018,05,08,16,06,18.30
2018,05,08,16,07,18.30
2018,05,08,16,08,18.20
2018,05,08,16,09,18.20
2018,05,08,16,10,18.20
2018,05,08,16,11,18.20
2018,05,08,16,12,18.20
2018,05,08,16,13,18.20
2018,05,08,16,14,18.20
2018,05,08,16,15,18.20
2018,05,08,16,16,18.20
2018,05,08,16,17,18.20
2018,05,08,16,18,18.20
2018,05,08,16,19,18.20
2018,05,08,16,20,18.20
2018,05,08,16,21,18.10
2018,05,08,16,22,18.10
2018,05,08,16,23,18.10
2018,05,08,16,24,18.10
2018,05,08,16,25,18.10
2018,05,08,16,26,18.20
2018,05,08,16,27,18.20
2018,05,08,16,28,18.10
2018,05,08,16,29,18.10
2018,05,08,16,30,18.00
2018,05,08,16,31,17.90
2018,05,08,16,32,17.90
2018,05,08,16,33,17.90
2018,05,08,16,34,17.90
2018,05,08,16,35,17.90
2018,05,08,16,36,17.80
2018,05,08,16,37,17.80
2018,05,08,16,38,17.80
2018,05,08,16,39,17.80
2018,05,08,16,40,17.80
2018,05,08,16,41,17.80
2018,05,08,16,42,17.70
2018,05,08,16,43,17.70
2018,05,08,16,44,17.70
2018,05,08,16,45,17.60
2018,05,08,16,46,17.60
2018,05,08,16,47,17.60
2018,05,08,16,48,17.50
2018,05,08,16,49,17.50
2018,05,08,16,50,17.50
2018,05,08,16,51,17.50
2018,05,08,16,52,17.40
2018,05,08,16,53,17.40
2018,05,08,16,54,17.40
2018,05,08,16,55,17.40
2018,05,08,16,56,17.40
2018,05,08,16,57,17.40
2018,05,08,16,58,17.40
2018,05,08,16,59,17.30
2018,05,08,17,00,17.30
2018,05,08,17,01,17.30
2018,05,08,17,02,17.20
2018,05,08,17,03,17.20
2018,05,08,17,04,17.20
2018,05,08,17,05,17.20
2018,05,08,17,06,17.20
2018,05,08,17,07,17.20
2018,05,08,17,08,17.20
2018,05,08,17,09,17.20
2018,05,08,17,10,17.20
2018,05,08,17,11,17.10
2018,05,08,17,12,17.10
2018,05,08,17,13,17.10
2018,05,08,17,14,17.10
2018,05,08,17,15,17.00
2018,05,08,17,16,17.00
2018,05,08,17,17,16.90
2018,05,08,17,18,16.90
2018,05,08,17,19,16.80
2018,05,08,17,20,16.80
2018,05,08,17,21,16.70
2018,05,08,17,22,16.70
2018,05,08,17,23,16.50
2018,05,08,17,24,16.40
2018,05,08,17,25,16.30
2018,05,08,17,26,16.20
2018,05,08,17,27,16.10
2018,05,08,17,28,16.00
2018,05,08,17,29,16.00
2018,05,08,17,30,15.90
2018,05,08,17,31,15.90
2018,05,08,17,32,15.80
2018,05,08,17,33,15.80
2018,05,08,17,34,15.80
2018,05,08,17,35,15.80
2018,05,08,17,36,15.70
2018,05,08,17,37,15.70